Flag for U.S.A. Weather past 2 weeks in Cupertino, California, U.S.A.

Now
67 °F

Scattered clouds.


Feels Like: 67 °F
Forecast: 60 / 78 °F
Wind: No wind

Location: Moffett Field

Current Time: Aug 22, 2014 at 9:28:42 AM

Latest Report: Aug 22, 2014 at 8:56 AM


Visibility: 10 mi

Pressure: 29.94 "Hg

Humidity: 73%

Dew point: 58 °F

Location of CupertinoLocation

Historic Weather in Cupertino — Graph

°F

Cupertino temperature yesterday

Maximum temperature yesterday: 77 °F (at 1:56 PM)
Minimum temperature yesterday: 60 °F (at 5:56 AM)
Average temperature yesterday: 68 °F

Past Weeks' High & Low Weather Summary

 TemperatureHumidityPressure
High78 °F (Aug 20, 1:56 PM)87% (Aug 14, 10:56 PM)30.06 "Hg (Aug 14, 10:56 PM)
Low59 °F (Aug 9, 4:56 AM)46% (Aug 20, 1:56 PM)29.80 "Hg (Aug 19, 4:56 PM)
Average67 °F72%29.95 "Hg
* Reported Aug 7 7:56 AM — Aug 22 7:56 AM, Cupertino, Weather by CustomWeather, © 2014

Note: Actual official high and low records may vary slightly from our data, if they occured in-between our weather recording intervals... More about our weather records

Advertising

Cupertino weather history for previous 24 hours

 ConditionsComfort  
Time TempWeatherWind HumidityBarometerVisibility
7:56 AM
Aug 22
64 °FScattered clouds.No wind84%29.95 "Hg10 mi
6:56 AM63 °FPassing clouds.6 mph87%29.94 "Hg10 mi
5:56 AM63 °FOvercast.6 mph87%29.93 "Hg10 mi
4:56 AM63 °FPassing clouds.No wind87%29.93 "Hg10 mi
3:56 AM63 °FOvercast.No wind87%29.93 "Hg10 mi
2:56 AM63 °FPassing clouds.No wind87%29.94 "Hg10 mi
1:56 AM64 °FClear.3 mph84%29.94 "Hg10 mi
12:56 AM63 °FClear.No wind84%29.95 "Hg10 mi
11:56 PM
Aug 21
63 °FClear.No wind87%29.94 "Hg10 mi
10:56 PM65 °FClear.6 mph81%29.95 "Hg10 mi
9:56 PM65 °FClear.3 mph81%29.95 "Hg10 mi
8:56 PM66 °FClear.10 mph81%29.93 "Hg10 mi
7:56 PM67 °FSunny.14 mph79%29.92 "Hg10 mi
6:56 PM70 °FSunny.13 mph71%29.91 "Hg10 mi
5:56 PM73 °FSunny.9 mph66%29.91 "Hg10 mi
4:56 PM75 °FSunny.13 mph62%29.91 "Hg10 mi
3:56 PM76 °FSunny.16 mph60%29.92 "Hg10 mi
2:56 PM77 °FSunny.14 mph56%29.94 "Hg10 mi
1:56 PM77 °FSunny.15 mph54%29.95 "Hg10 mi
12:56 PM76 °FSunny.10 mph52%29.95 "Hg10 mi
11:56 AM74 °FSunny.10 mph56%29.96 "Hg10 mi
10:56 AM73 °FSunny.7 mph53%29.97 "Hg10 mi
9:56 AM70 °FSunny.6 mph59%29.96 "Hg10 mi
Weather by CustomWeather, © 2014

See weather overviewHow to use our weather pages